Weather History for CZOC - January, 2014

Change the Weather History Date:

Wednesday, January 8, 2014

  Actual Average Record
Temperature  
Mean Temperature -3 °F -  
Max Temperature 1 °F - - ()
Min Temperature -11 °F - - ()
Degree Days  
Heating Degree Days 68    
Moisture  
Dew Point -10 °F    
Average Humidity 70    
Maximum Humidity 78    
Minimum Humidity 50    
Precipitation  
Precipitation 0.00 in - - ()
Sea Level Pressure  
Sea Level Pressure 29.77 in    
Wind  
Wind Speed 11 mph ()    
Max Wind Speed 21 mph    
Max Gust Speed 25 mph    
T = Trace of Precipitation, MM = Missing Value Source: Averaged Metar Reports

Daily Weather History Graph

Daily Weather History Graph

Search for Another Location

Airport or City:

Trip Planner

Search our weather history database for the weather conditions in past years. The results will help you decide how hot, cold, wet, or windy it might be!

Date:

Astronomy

Jan. 08, 2014 Rise Set
Actual Time 12:10 PM PST 2:42 PM PST
Civil Twilight 10:21 AM PST 4:31 PM PST
Nautical Twilight 9:00 AM PST 5:52 PM PST
Astronomical Twilight 7:52 AM PST 7:00 PM PST
Moon 11:53 AM PST (1/8) 3:01 AM PST (1/8)
Length of Visible Light 6h 10m
Length of Day
2h 32m
First Quarter, 57% of the Moon is Illuminated
Jan 8
First Quarter
Jan 15
Full
Jan 23
Last Quarter
Jan 30
New
Feb 6
First Quarter

Hourly Weather History & Observations

Time (PST) Temp. Windchill Dew Point Humidity Pressure Visibility Wind Dir Wind Speed Gust Speed Precip Events Conditions
12:00 AM 0.7 °F -15.4 °F -5.3 °F 76% 29.80 in - ENE 10.4 mph - N/A   Unknown
1:00 AM 0.5 °F -14.6 °F -5.6 °F 75% 29.81 in - NE 9.2 mph - N/A   Unknown
2:00 AM 0.7 °F -16.2 °F -5.8 °F 74% 29.81 in - ENE 11.5 mph - N/A   Unknown
3:00 AM 1.0 °F -11.7 °F -5.8 °F 73% 29.81 in - ENE 6.9 mph - N/A   Unknown
4:00 AM -0 °F - -7 °F 61% 29.81 in - NE 8.1 mph - -  
4:00 AM -0.0 °F -14.2 °F -6.7 °F 73% 29.81 in - NE 8.1 mph - N/A   Unknown
5:00 AM -3.6 °F -15.9 °F -8.9 °F 78% 29.80 in - East 5.8 mph - N/A   Unknown
6:00 AM -2.7 °F -19.6 °F -8.5 °F 76% 29.80 in - ENE 10.4 mph - N/A   Unknown
7:00 AM -4.4 °F -16.7 °F -9.6 °F 78% 29.78 in - ENE 5.8 mph - N/A   Unknown
8:00 AM -1.5 °F -20.5 °F -7.8 °F 75% 29.77 in - ENE 13.8 mph - N/A   Unknown
9:00 AM -2.2 °F -23.5 °F -8.3 °F 75% 29.77 in - NE 17.3 mph - N/A   Unknown
10:00 AM -2 °F - -8 °F 63% 29.77 in - NE 17.3 mph - -  
10:00 AM -1.8 °F -23.0 °F -8.1 °F 75% 29.77 in - NE 17.3 mph - N/A   Unknown
11:00 AM -3.1 °F -21.0 °F -9.8 °F 73% 29.78 in - NE 11.5 mph 20.7 mph N/A   Unknown
12:00 PM -3.6 °F -26.0 °F -10.5 °F 72% 29.77 in - NE 18.4 mph 25.3 mph N/A   Unknown
1:00 PM -3.6 °F -26.0 °F -10.8 °F 71% 29.77 in - NE 18.4 mph - N/A   Unknown
2:00 PM -4.0 °F -27.0 °F -11.9 °F 69% 29.76 in - NE 19.6 mph - N/A   Unknown
3:00 PM -5.1 °F -28.4 °F -13.4 °F 67% 29.77 in - NE 19.6 mph - N/A   Unknown
6:00 PM -5.4 °F -29.5 °F -14.6 °F 65% 29.74 in - NNE 20.7 mph - N/A   Unknown
7:00 PM -6.7 °F -30.0 °F -15.2 °F 67% 29.74 in - NNE 18.4 mph 25.3 mph N/A   Unknown
8:00 PM -6.7 °F -27.9 °F -15.2 °F 67% 29.73 in - NE 15.0 mph 23.0 mph N/A   Unknown
9:00 PM -6.2 °F -26.5 °F -15.3 °F 64% 29.73 in - NE 13.8 mph - N/A   Unknown
10:00 PM -7 °F - -16 °F 50% 29.73 in - ENE 9.2 mph - -  
10:00 PM -6.9 °F -22.5 °F -15.9 °F 65% 29.73 in - ENE 8.1 mph - N/A   Unknown
11:00 PM -11.6 °F -29.5 °F -18.4 °F 72% 29.73 in - East 9.2 mph - N/A   Unknown